COSMOS 970 DEB, 12868

Orbit data source: Space-Track

COSMOS 970 DEB, 12868 is space debris in LEO originally from a launch on Wed, 21 Dec 1977 UTC launched from the Tyuratam Missile And Space Complex (TTMTR). Debris objects in space refer to the collection of defunct objects orbiting the Earth. Examples of debris include non-operational satellites, rocket bodies, and fragments generated from explosions, collisions, or faulty payload assembly.

Loading next visibility...
Identifier
12868, 1977-121AW
Orbit
LEO
Country
Flag of CISCIS
Related business
Manufacturer
Unknown
Mission
Spacecraft
Bus & Motor
Unknown
Mass
Unknown
Launch date (UTC)
1977-12-21 (48 years ago)
Launch vehicle
Unknown
Launch site
Tyuratam Missile And Space Complex (TTMTR)
Object type
Payload
Rocket body
Debris
Shape & HBR
Unknown shape, 0.1 m
Radar Cross Section
Small (<0.1 m²)

Expand to show TLE details & history
Last TLE update: 18 hours ago

TLE from 18 hours ago
0 COSMOS 970 DEB
1 12868U 77121AW  26171.14371378  .00000548  00000-0  65234-3 0  9994
2 12868  65.7613 193.3708 0046692  88.8839  16.7063 13.75078395412409
Epoch: 2026-06-20T03:26Z
TLE epoch observation values (Epoch: 2026-06-20T03:26:56.870Z)
Latitude
61.47401°
Longitude
-2.21638°
Altitude
958.089 km
Speed
7.395 km/s
True Right ascension
21h 11m 31s
True Declination
61° 20' 00"
Sunlit
Object was in daylight at epoch
Visualization orbit readout
Latitude
Unknown
Longitude
Unknown
Altitude
Unknown
Speed
Unknown
Apparent Right ascension
Unknown
Apparent Declination
Unknown
Sunlit
N/A
Visualization observer readout
Local Sidereal Time
08:33:47
Azimuth
Unknown
Elevation
Unknown
Doppler factor
Unknown
Orbital elements
Apogee altitude
1,014.277 km
Perigee altitude
945.564 km
Semi-major axis
7,358.058 km
Eccentricity
0.00467
Inclination
65.7613°
RAAN
193.3708°
Arg. of periapsis
88.8839°
True anomaly
16.86097°
Mean anomaly
16.7063°
Eccentric anomaly
16.78355°
Mean motion
3.43873 °/min
Orbital period
104.69 mins
BSTAR
0.00065234
Loading maneuver chart data...
Computing Atmospheric mass density...
Loading historical data...
Loading historical data...
Loading historical data...
Loading historical data...
Loading historical data...
Loading historical data...
Loading historical data...

Documentation

Showing up to 5 results
|